Погода в Павловском

Россия / Владимирская область     56°16′58″N   40°00′04″E
темп.,
°C
ветер,
м/с
пор.,
м/с
влажн.,
%
обл.,
%
осадки,
мм/ч
давл.,
гПа
погр.,
м
24 июля, сб
сб2400:00+15сз496659 0.0 1008317
03:00+12сз377889 0.0 1009162
06:00+12ссз368094 0.0 1011163
09:00+15с3570100 0.4 1012499
12:00+18ссз345537 1.0 10131528
15:00+20ссз244188 1.1 10132323
18:00+17ссз3755100 0.0 1015306
21:00+14сз34605 0.0 101760
25 июля, вс
вс2500:00+11сз22655 0.0 101811
03:00+10з22676 0.0 102012
06:00+12юз237029 0.0 102167
09:00+18юз235220 0.0 1021449
12:00+21з243666 0.0 10212514
15:00+19зюз365698 0.0 1021209
18:00+19зсз255790 0.0 1022135
21:00+15юз226095 0.0 102212
26 июля, пн
пн2600:00+16зюз345898 0.0 102356
03:00+16з3554100 0.0 1024104
06:00+16з226352 0.0 102461
09:00+18юз235999 0.0 1024186
12:00+22зюз454583 0.0 1024888
15:00+21зсз465268 0.0 1023480
18:00+23зсз35515 0.0 10231089
21:00+19з225748 0.0 102324
27 июля, вт
вт2700:00+16з22707 0.0 102314
03:00+15зсз337614 0.0 102341
06:00+16зсз24785 0.0 1024100
09:00+22зсз23585 0.0 1023463
12:00+26з33435 0.0 10221631
15:00+27зсз233848 0.0 10212289
18:00+25з35494 0.0 1020358
21:00+18зсз34672 0.0 102056
28 июля, ср
ср2800:00+17з347310 0.0 102069
03:00+15зюз22823 0.0 102020
06:00+17з23790 0.0 101987
09:00+23зюз35575 0.0 1018504
12:00+27зюз46447 0.0 10171970
15:00+26зюз235371 0.0 1015130
18:00+27юз474499 0.0 1013359
21:00+21юз3356100 0.0 101326